Regional Weather Roundup
Issued by NWS

Home | Current Version | Previous Version | Graphics & Text | Print | Product List | Glossary On
Versions: 1 2 3 4 5 6 7 8 9 10 11 12 13 14 15 16 17 18 19 20 21 22 23 24 25 26 27 28 29 30 31 32 33 34 35 36 37 38 39 40 41 42 43 44 45 46 47 48 49 50
000
ASUS43 KDTX 050701
RWRMI
MICHIGAN HOURLY REGIONAL WEATHER ROUNDUP
NATIONAL WEATHER SERVICE DETROIT/PONTIAC MI
300 AM EDT SUN JUL 05 2015

NOTE: "FAIR" INDICATES FEW OR NO CLOUDS BELOW 12,000 FEET WITH NO
SIGNIFICANT WEATHER AND/OR OBSTRUCTION TO VISIBILITY.

MIZ047>049-052>055-059>063-066>070-074>076-081>083-050800-
SOUTHEAST LOWER MICHIGAN

CITY           SKY/WX    TMP DP  RH WIND       PRES   REMARKS
ADRIAN         FAIR      59  57  93 CALM      30.08S
ALMA           FAIR      61  60  96 CALM      30.07R
ANN ARBOR      FAIR      55  54  96 CALM      30.07S
BAD AXE        FAIR      58  55  88 CALM      30.05S
CARO           FAIR      61  58  88 CALM      30.05R
DETROIT CITY   FAIR      65  58  78 CALM      30.08R
DETROIT        FAIR      64  58  80 CALM      30.08S
FLINT          FAIR      62  57  83 CALM      30.06S HAZE
GROSSE ILE     FAIR      64  61  88 CALM      30.06S
HILLSDALE      FAIR      58  58 100 CALM      30.09R FOG
HOWELL         FAIR      60  57  91 CALM      30.07S FOG

CITY           SKY/WX    TMP DP  RH WIND       PRES   REMARKS
JACKSON        FAIR      59  56  89 CALM      30.08S
LAMBERTVILLE   FAIR      60  56  87 CALM      30.08S FOG
LANSING        FAIR      62  59  90 CALM      30.07S FOG
LAPEER         FAIR      56  55  94 CALM      30.07R FOG
MASON          FAIR      55  54  95 CALM      30.07F FOG
MONROE         FAIR      60  57  91 CALM      30.07S FOG
MT. CLEMENS    FAIR      62  56  82 S2        30.05S
PONTIAC        FAIR      62  58  86 CALM      30.07S FOG
PORT HOPE        N/A     59  57  93 CALM      30.03S
PORT HURON     FAIR      57  55  94 CALM      30.07R
TRI CITIES     FAIR      65  60  84 NW5       30.06R
MIDLAND        FAIR      60  58  94 NW3       30.06R
TROY           FAIR      65  58  79 S3        30.09R HAZE
SAGINAW HB     FAIR      64  61  88 SW5       30.05R
$$
MIZ043>046-050>051-056>058-064>065-071>073-077>080-050800-
SOUTHWEST LOWER MICHIGAN

CITY           SKY/WX    TMP DP  RH WIND       PRES   REMARKS
BATTLE CREEK   FAIR      61  58  90 CALM      30.08R
BENTON HARBOR  FAIR      55  53  93 CALM      30.05R FOG
BIG RAPIDS     FAIR      57  55  90 CALM      30.07R FOG
COLDWATER      FAIR      57  57  98 CALM      30.08R FOG
FREMONT        FAIR      58  58  98 CALM      30.06R FOG
HOLLAND        FAIR      60  57  89 CALM      30.07R
GRAND RAPIDS   FAIR      61  57  87 CALM      30.07R FOG
IONIA          FAIR      60  59  97 CALM      30.06R FOG
KALAMAZOO      FAIR      60  57  89 CALM      30.07R FOG
LUDINGTON        N/A     56  54  92 CALM      30.07R FOG
MARSHALL       FAIR      58  57  97 CALM      30.07S FOG
MOUNT PLEASANT FAIR      60  58  95 CALM      30.06R FOG
MUSKEGON       FAIR      59  55  87 CALM      30.07R FOG
SOUTH HAVEN    FAIR      57  55  94 CALM      30.06R FOG
$$
MIZ016>042-050800-
NORTHERN LOWER MICHIGAN

CITY           SKY/WX    TMP DP  RH WIND       PRES   REMARKS
ALPENA         FAIR      51  49  92 CALM      30.07R
BEAVER ISLAND  FOG       54  53  98 CALM      30.05S VSB 1
BELLAIRE       FOG       54  52  95 CALM      30.06S VSB 3/4
CADILLAC         N/A     53  51  95 CALM      30.08S FOG
CHARLEVOIX     FAIR      56  55  97 CALM      30.09R FOG
FRANKFORT      FAIR      57  51  80 CALM      30.06R HAZE
GAYLORD        FAIR      55  54  96 CALM      30.08R FOG
GRAYLING         N/A     51  50  96 CALM      30.08S FOG
HARBOR SPRINGS FAIR      55  54  96 NE3       30.06S
HOUGHTON LAKE  FAIR      55  54  96 CALM      30.08R FOG
MANISTEE       FAIR      54  52  94 E3        30.07R
OSCODA         FAIR      55  53  95 CALM      30.05R
PELLSTON       FAIR      50  49  96 CALM      30.06S
ROGERS CITY    FAIR      55  53  95 CALM      30.07R
TRAVERSE CITY  FAIR      58  55  90 CALM      30.05R FOG
$$
MIZ007>008-015-050800-
EASTERN UPPER MICHIGAN

CITY           SKY/WX    TMP DP  RH WIND       PRES   REMARKS
KINROSS        FAIR      48  48 100 CALM      30.05S
MACKINAC ISLAN FAIR      55  54  97 S7        30.05S
NEWBERRY       FAIR      52  51  95 CALM      30.04S
S. S. MARIE    FAIR      50  48  93 S3        30.04S
$$
MIZ004>006-011>014-085-050800-
CENTRAL UPPER MICHIGAN

CITY           SKY/WX    TMP DP  RH WIND       PRES   REMARKS
MANISTIQUE     FAIR      53  52  96 CALM      30.04R FOG
ESCANABA       FAIR      55  54  94 CALM      30.02S
MENOMINEE      FAIR      64  57  77 CALM      30.01S
SAWYER-GWINN   FAIR      58  55  88 S6        30.02F
$$
MIZ001>003-009>011-084-050800-
WESTERN UPPER MICHIGAN

CITY           SKY/WX    TMP DP  RH WIND       PRES   REMARKS
IRON MOUNTAIN  FAIR      60  58  92 CALM      30.01S FOG
HOUGHTON       FAIR      54  50  86 E5        29.95F
COPPER HARBOR    N/A     59  51  75 SW13G22   29.94F
IRONWOOD       FAIR      68  63  83 SW7       29.92F
$$

ABBREVIATIONS USED IN REMARKS
   TC - TEMPERATURE IN CELSIUS
  WCI - WIND CHILL INDEX
   HX - HEAT INDEX
  VSB - VISIBILITY




USA.gov is the U.S. government's official web portal to all federal, state and local government web resources and services.